Location: Muenchen
(48.1800°N, 11.5800°E)
Time: 09:46:24
(UTC+02:00)

Tiros 1 - Pass Details

Date: 26 June 2018
Orbit: 631 x 664 km, 48.4° (Epoch: 22 July)

Event Time Altitude Azimuth Distance (km) Brightness Sun altitude
Rises 23:29:33 0° 284° (WNW) 2,946 11.1 -14.6°
Reaches altitude 10° 23:32:07 10° 273° (W) 2,039 10.1 -14.7°
Maximum altitude 23:36:07 28° 215° (SW) 1,213 8.3 -15.0°
Enters shadow 23:37:45 23° 182° (S) 1,388 8.3 -15.1°
